Time,TemperatureF,DewpointF,PressureIn,WindDirection,WindDirectionDegrees,WindSpeedMPH,WindSpeedGustMPH,Humidity,HourlyPrecipIn,Conditions,Clouds,dailyrainin,SoftwareType,DateUTC
2013-05-02 00:01:00,67.5,62.1,29.86,NE,53,0.0,7.0,83,0.00,,,0.00,WeatherCatV1.02B3,2013-05-02 05:01:00,
2013-05-02 00:06:00,67.4,62.0,29.86,NE,55,0.0,5.0,83,0.00,,,0.00,WeatherCatV1.02B3,2013-05-02 05:06:00,
2013-05-02 00:11:00,67.3,62.0,29.86,ENE,59,0.0,5.0,83,0.00,,,0.00,WeatherCatV1.02B3,2013-05-02 05:11:00,
2013-05-02 00:16:00,67.2,61.9,29.86,ENE,67,0.0,3.0,83,0.00,,,0.00,WeatherCatV1.02B3,2013-05-02 05:16:00,
2013-05-02 00:21:00,67.1,61.8,29.86,SSE,150,3.0,6.0,83,0.00,,,0.00,WeatherCatV1.02B3,2013-05-02 05:21:00,
2013-05-02 00:26:00,67.0,62.0,29.86,SE,130,3.0,9.0,84,0.00,,,0.00,WeatherCatV1.02B3,2013-05-02 05:26:00,
2013-05-02 00:31:00,66.9,61.9,29.88,East,84,0.0,4.0,84,0.00,,,0.00,WeatherCatV1.02B3,2013-05-02 05:31:00,
2013-05-02 00:36:00,66.8,61.8,29.88,WNW,296,0.0,6.0,84,0.00,,,0.00,WeatherCatV1.02B3,2013-05-02 05:36:00,
2013-05-02 00:41:00,66.8,61.8,29.88,SE,125,0.0,0.0,84,0.00,,,0.00,WeatherCatV1.02B3,2013-05-02 05:41:00,
2013-05-02 00:46:00,66.7,61.7,29.90,SE,125,0.0,1.0,84,0.00,,,0.00,WeatherCatV1.02B3,2013-05-02 05:46:00,
2013-05-02 00:51:00,66.6,61.6,29.90,SE,125,0.0,0.0,84,0.00,,,0.00,WeatherCatV1.02B3,2013-05-02 05:51:00,
2013-05-02 00:56:00,66.5,61.5,29.90,NNE,33,0.0,0.0,84,0.00,,,0.00,WeatherCatV1.02B3,2013-05-02 05:56:00,
2013-05-02 01:01:00,66.4,61.7,29.91,NE,55,0.0,0.0,85,0.00,,,0.00,WeatherCatV1.02B3,2013-05-02 06:01:00,
2013-05-02 01:06:00,66.3,61.6,29.91,NE,55,0.0,0.0,85,0.00,,,0.00,WeatherCatV1.02B3,2013-05-02 06:06:00,
2013-05-02 01:11:00,66.2,61.5,29.91,NE,55,0.0,0.0,85,0.00,,,0.00,WeatherCatV1.02B3,2013-05-02 06:11:00,
2013-05-02 01:16:00,66.2,61.5,29.92,NE,55,0.0,0.0,85,0.00,,,0.00,WeatherCatV1.02B3,2013-05-02 06:16:00,
2013-05-02 01:21:00,66.1,61.5,29.92,NE,55,0.0,0.0,85,0.00,,,0.00,WeatherCatV1.02B3,2013-05-02 06:21:00,
2013-05-02 01:26:00,66.0,61.4,29.92,NE,55,0.0,0.0,85,0.00,,,0.00,WeatherCatV1.02B3,2013-05-02 06:26:00,
2013-05-02 01:31:00,65.9,61.3,29.93,NE,55,0.0,0.0,85,0.00,,,0.00,WeatherCatV1.02B3,2013-05-02 06:31:00,
2013-05-02 01:36:00,65.8,61.2,29.93,NE,55,0.0,0.0,85,0.00,,,0.00,WeatherCatV1.02B3,2013-05-02 06:36:00,
2013-05-02 01:41:00,65.7,61.4,29.93,NE,55,0.0,0.0,86,0.00,,,0.00,WeatherCatV1.02B3,2013-05-02 06:41:00,
2013-05-02 01:46:00,65.6,61.3,29.94,NE,55,0.0,0.0,86,0.00,,,0.00,WeatherCatV1.02B3,2013-05-02 06:46:00,
2013-05-02 01:51:00,65.4,61.1,29.94,NE,55,0.0,0.0,86,0.00,,,0.00,WeatherCatV1.02B3,2013-05-02 06:51:00,
2013-05-02 01:56:00,65.3,61.0,29.94,NE,55,0.0,0.0,86,0.00,,,0.00,WeatherCatV1.02B3,2013-05-02 06:56:00,
2013-05-02 02:01:00,65.2,61.2,29.94,NE,55,0.0,0.0,87,0.00,,,0.00,WeatherCatV1.02B3,2013-05-02 07:01:00,
2013-05-02 02:06:00,65.0,61.0,29.94,NE,55,0.0,0.0,87,0.00,,,0.00,WeatherCatV1.02B3,2013-05-02 07:06:00,
2013-05-02 02:11:00,64.9,60.9,29.94,NE,48,0.0,0.0,87,0.00,,,0.00,WeatherCatV1.02B3,2013-05-02 07:11:00,
2013-05-02 02:16:00,64.8,61.2,29.92,North,5,0.0,0.0,88,0.00,,,0.00,WeatherCatV1.02B3,2013-05-02 07:16:00,
2013-05-02 02:21:00,64.8,61.2,29.92,NNE,14,0.0,1.0,88,0.00,,,0.00,WeatherCatV1.02B3,2013-05-02 07:21:00,
2013-05-02 02:26:00,64.8,61.2,29.92,NNE,30,0.0,0.0,88,0.00,,,0.00,WeatherCatV1.02B3,2013-05-02 07:26:00,
2013-05-02 02:31:00,64.8,61.5,29.93,NE,42,0.0,4.0,89,0.00,,,0.00,WeatherCatV1.02B3,2013-05-02 07:31:00,
2013-05-02 02:36:00,64.8,61.5,29.93,NE,38,0.0,1.0,89,0.00,,,0.00,WeatherCatV1.02B3,2013-05-02 07:36:00,
2013-05-02 02:41:00,64.9,61.6,29.93,NE,44,1.0,2.0,89,0.00,,,0.00,WeatherCatV1.02B3,2013-05-02 07:41:00,
2013-05-02 02:46:00,65.2,61.9,29.93,NE,46,0.0,2.0,89,0.00,,,0.00,WeatherCatV1.02B3,2013-05-02 07:46:00,
2013-05-02 02:51:00,65.4,62.1,29.93,NNW,330,0.0,6.0,89,0.00,,,0.00,WeatherCatV1.02B3,2013-05-02 07:51:00,
2013-05-02 02:56:00,65.5,61.8,29.93,NNE,29,0.0,2.0,88,0.00,,,0.00,WeatherCatV1.02B3,2013-05-02 07:56:00,
2013-05-02 03:01:00,65.7,62.0,29.93,NE,49,3.0,4.0,88,0.00,,,0.00,WeatherCatV1.02B3,2013-05-02 08:01:00,
2013-05-02 03:06:00,65.9,61.9,29.93,NNE,19,0.0,3.0,87,0.00,,,0.00,WeatherCatV1.02B3,2013-05-02 08:06:00,
2013-05-02 03:11:00,66.0,62.0,29.93,NE,49,0.0,2.0,87,0.00,,,0.00,WeatherCatV1.02B3,2013-05-02 08:11:00,
2013-05-02 03:16:00,66.1,62.1,29.93,NNE,21,0.0,6.0,87,0.00,,,0.00,WeatherCatV1.02B3,2013-05-02 08:16:00,
2013-05-02 03:21:00,66.1,61.8,29.93,NNE,14,4.0,4.0,86,0.00,,,0.00,WeatherCatV1.02B3,2013-05-02 08:21:00,
2013-05-02 03:26:00,66.3,62.0,29.93,NNE,26,0.0,7.0,86,0.00,,,0.00,WeatherCatV1.02B3,2013-05-02 08:26:00,
2013-05-02 03:31:00,66.3,62.0,29.92,NNE,24,0.0,9.0,86,0.00,,,0.00,WeatherCatV1.02B3,2013-05-02 08:31:00,
2013-05-02 03:36:00,66.4,62.1,29.92,NNE,25,0.0,9.0,86,0.00,,,0.00,WeatherCatV1.02B3,2013-05-02 08:36:00,
2013-05-02 03:41:00,66.5,62.2,29.92,North,355,4.0,4.0,86,0.00,,,0.00,WeatherCatV1.02B3,2013-05-02 08:41:00,
2013-05-02 03:46:00,66.5,62.2,29.92,NNE,31,0.0,5.0,86,0.00,,,0.00,WeatherCatV1.02B3,2013-05-02 08:46:00,
2013-05-02 03:51:00,66.5,62.2,29.92,NNE,14,0.0,3.0,86,0.00,,,0.00,WeatherCatV1.02B3,2013-05-02 08:51:00,
2013-05-02 03:56:00,66.6,62.3,29.92,North,0,7.0,7.0,86,0.00,,,0.00,WeatherCatV1.02B3,2013-05-02 08:56:00,
2013-05-02 04:01:00,66.6,62.3,29.93,NE,36,2.0,6.0,86,0.00,,,0.00,WeatherCatV1.02B3,2013-05-02 09:01:00,
2013-05-02 04:06:00,66.6,62.3,29.93,NNE,13,2.0,2.0,86,0.00,,,0.00,WeatherCatV1.02B3,2013-05-02 09:06:00,
2013-05-02 04:11:00,66.6,62.3,29.93,NNW,343,2.0,5.0,86,0.00,,,0.00,WeatherCatV1.02B3,2013-05-02 09:11:00,
2013-05-02 04:16:00,66.6,61.9,29.93,NNE,28,0.0,6.0,85,0.00,,,0.00,WeatherCatV1.02B3,2013-05-02 09:16:00,
2013-05-02 04:21:00,66.6,61.9,29.93,North,0,0.0,2.0,85,0.00,,,0.00,WeatherCatV1.02B3,2013-05-02 09:21:00,
2013-05-02 04:26:00,66.6,61.9,29.93,NE,42,0.0,4.0,85,0.00,,,0.00,WeatherCatV1.02B3,2013-05-02 09:26:00,
2013-05-02 04:31:00,66.6,61.9,29.94,NNE,15,0.0,6.0,85,0.00,,,0.00,WeatherCatV1.02B3,2013-05-02 09:31:00,
2013-05-02 04:36:00,66.6,61.9,29.94,NNE,27,0.0,4.0,85,0.00,,,0.00,WeatherCatV1.02B3,2013-05-02 09:36:00,
2013-05-02 04:41:00,66.6,61.9,29.94,NE,44,1.0,7.0,85,0.00,,,0.00,WeatherCatV1.02B3,2013-05-02 09:41:00,
2013-05-02 04:46:00,66.6,61.9,29.94,NNE,31,3.0,10.0,85,0.00,,,0.00,WeatherCatV1.02B3,2013-05-02 09:46:00,
2013-05-02 04:51:00,66.6,61.9,29.94,NNE,30,0.0,10.0,85,0.00,,,0.00,WeatherCatV1.02B3,2013-05-02 09:51:00,
2013-05-02 04:56:00,66.7,62.4,29.94,NNE,24,6.0,6.0,86,0.00,,,0.00,WeatherCatV1.02B3,2013-05-02 09:56:00,
2013-05-02 05:01:00,66.7,62.0,29.94,NNE,31,5.0,6.0,85,0.00,,,0.00,WeatherCatV1.02B3,2013-05-02 10:01:00,
2013-05-02 05:06:00,66.6,62.3,29.94,West,262,2.0,11.0,86,0.00,,,0.00,WeatherCatV1.02B3,2013-05-02 10:06:00,
2013-05-02 05:11:00,66.6,62.3,29.94,NNE,23,3.0,10.0,86,0.00,,,0.00,WeatherCatV1.02B3,2013-05-02 10:11:00,
2013-05-02 05:16:00,66.5,62.8,29.95,NE,36,3.0,13.0,88,0.00,,,0.00,WeatherCatV1.02B3,2013-05-02 10:16:00,
2013-05-02 05:21:00,66.3,63.0,29.95,North,355,3.0,6.0,89,0.00,,,0.01,WeatherCatV1.02B3,2013-05-02 10:21:00,
2013-05-02 05:26:00,65.9,62.6,29.95,NNW,328,5.0,13.0,89,0.00,,,0.01,WeatherCatV1.02B3,2013-05-02 10:26:00,
2013-05-02 05:31:00,65.2,61.2,29.96,NNW,339,4.0,15.0,87,0.06,,,0.02,WeatherCatV1.02B3,2013-05-02 10:31:00,
2013-05-02 05:36:00,64.0,59.7,29.96,WSW,238,1.0,14.0,86,0.10,,,0.03,WeatherCatV1.02B3,2013-05-02 10:36:00,
2013-05-02 05:41:00,62.7,58.1,29.96,West,275,2.0,10.0,85,0.08,,,0.03,WeatherCatV1.02B3,2013-05-02 10:41:00,
2013-05-02 05:46:00,61.4,57.2,29.99,North,10,5.0,12.0,86,0.08,,,0.04,WeatherCatV1.02B3,2013-05-02 10:46:00,
2013-05-02 05:51:00,60.2,56.0,29.99,North,10,4.0,15.0,86,0.06,,,0.04,WeatherCatV1.02B3,2013-05-02 10:51:00,
2013-05-02 05:56:00,59.0,55.1,29.99,NNE,26,4.0,10.0,87,0.04,,,0.04,WeatherCatV1.02B3,2013-05-02 10:56:00,
2013-05-02 06:01:00,58.0,54.5,30.00,NNE,15,6.0,17.0,88,0.00,,,0.04,WeatherCatV1.02B3,2013-05-02 11:01:00,
2013-05-02 06:06:00,57.3,54.1,30.00,NE,35,2.0,16.0,89,0.00,,,0.04,WeatherCatV1.02B3,2013-05-02 11:06:00,
2013-05-02 06:11:00,56.9,54.0,30.00,North,11,3.0,12.0,90,0.00,,,0.04,WeatherCatV1.02B3,2013-05-02 11:11:00,
2013-05-02 06:16:00,56.5,53.6,30.01,NNE,13,3.0,10.0,90,0.00,,,0.04,WeatherCatV1.02B3,2013-05-02 11:16:00,
2013-05-02 06:21:00,56.1,53.2,30.01,NNW,343,4.0,10.0,90,0.00,,,0.04,WeatherCatV1.02B3,2013-05-02 11:21:00,
2013-05-02 06:26:00,55.8,52.9,30.01,NNW,327,10.0,10.0,90,0.00,,,0.04,WeatherCatV1.02B3,2013-05-02 11:26:00,
2013-05-02 06:31:00,55.4,52.5,30.02,North,9,2.0,10.0,90,0.00,,,0.04,WeatherCatV1.02B3,2013-05-02 11:31:00,
2013-05-02 06:36:00,55.1,52.2,30.02,ENE,61,3.0,10.0,90,0.00,,,0.04,WeatherCatV1.02B3,2013-05-02 11:36:00,
2013-05-02 06:41:00,54.9,52.0,30.02,North,10,3.0,10.0,90,0.00,,,0.04,WeatherCatV1.02B3,2013-05-02 11:41:00,
2013-05-02 06:46:00,54.7,51.8,30.03,North,0,4.0,12.0,90,0.00,,,0.04,WeatherCatV1.02B3,2013-05-02 11:46:00,
2013-05-02 06:51:00,54.4,51.2,30.03,North,355,3.0,16.0,89,0.00,,,0.04,WeatherCatV1.02B3,2013-05-02 11:51:00,
2013-05-02 06:56:00,54.2,50.7,30.03,NNE,31,5.0,14.0,88,0.00,,,0.04,WeatherCatV1.02B3,2013-05-02 11:56:00,
2013-05-02 07:01:00,54.1,50.6,30.05,NE,34,9.0,14.0,88,0.00,,,0.04,WeatherCatV1.02B3,2013-05-02 12:01:00,
2013-05-02 07:06:00,54.0,50.8,30.05,North,355,4.0,10.0,89,0.00,,,0.04,WeatherCatV1.02B3,2013-05-02 12:06:00,
2013-05-02 07:11:00,54.0,50.8,30.05,NNE,29,9.0,11.0,89,0.00,,,0.04,WeatherCatV1.02B3,2013-05-02 12:11:00,
2013-05-02 07:16:00,53.9,50.4,30.05,North,350,6.0,11.0,88,0.00,,,0.04,WeatherCatV1.02B3,2013-05-02 12:16:00,
2013-05-02 07:21:00,53.7,49.9,30.05,NNW,329,11.0,15.0,87,0.00,,,0.04,WeatherCatV1.02B3,2013-05-02 12:21:00,
2013-05-02 07:26:00,53.4,49.6,30.05,NNW,344,6.0,15.0,87,0.00,,,0.04,WeatherCatV1.02B3,2013-05-02 12:26:00,
2013-05-02 07:31:00,53.2,49.4,30.07,NNE,22,3.0,10.0,87,0.00,,,0.04,WeatherCatV1.02B3,2013-05-02 12:31:00,
2013-05-02 07:36:00,53.1,49.3,30.07,NNW,346,13.0,18.0,87,0.00,,,0.04,WeatherCatV1.02B3,2013-05-02 12:36:00,
2013-05-02 07:41:00,53.0,48.9,30.07,NNE,30,9.0,19.0,86,0.00,,,0.04,WeatherCatV1.02B3,2013-05-02 12:41:00,
2013-05-02 07:46:00,52.8,49.0,30.07,NNE,32,4.0,11.0,87,0.00,,,0.04,WeatherCatV1.02B3,2013-05-02 12:46:00,
2013-05-02 07:51:00,52.8,49.0,30.07,NNE,31,5.0,9.0,87,0.00,,,0.04,WeatherCatV1.02B3,2013-05-02 12:51:00,
2013-05-02 07:56:00,52.8,49.0,30.07,North,5,6.0,10.0,87,0.00,,,0.04,WeatherCatV1.02B3,2013-05-02 12:56:00,
2013-05-02 08:01:00,52.8,49.0,30.07,North,9,1.0,4.0,87,0.00,,,0.04,WeatherCatV1.02B3,2013-05-02 13:01:00,
2013-05-02 08:06:00,52.8,49.0,30.07,NNW,344,0.0,6.0,87,0.00,,,0.04,WeatherCatV1.02B3,2013-05-02 13:06:00,
2013-05-02 08:11:00,52.9,49.4,30.07,North,9,9.0,23.0,88,0.00,,,0.04,WeatherCatV1.02B3,2013-05-02 13:11:00,
2013-05-02 08:16:00,52.7,49.2,30.08,North,350,2.0,17.0,88,0.00,,,0.04,WeatherCatV1.02B3,2013-05-02 13:16:00,
2013-05-02 08:21:00,52.6,49.5,30.08,North,9,11.0,11.0,89,0.00,,,0.04,WeatherCatV1.02B3,2013-05-02 13:21:00,
2013-05-02 08:26:00,52.4,49.3,30.08,North,355,4.0,22.0,89,0.00,,,0.04,WeatherCatV1.02B3,2013-05-02 13:26:00,
2013-05-02 08:31:00,52.2,49.1,30.08,NNW,335,3.0,15.0,89,0.00,,,0.04,WeatherCatV1.02B3,2013-05-02 13:31:00,
2013-05-02 08:36:00,51.9,48.5,30.08,NNW,329,9.0,10.0,88,0.00,,,0.04,WeatherCatV1.02B3,2013-05-02 13:36:00,
2013-05-02 08:41:00,51.8,48.7,30.08,North,351,2.0,14.0,89,0.00,,,0.04,WeatherCatV1.02B3,2013-05-02 13:41:00,
2013-05-02 08:46:00,51.8,48.7,30.10,North,0,0.0,14.0,89,0.00,,,0.04,WeatherCatV1.02B3,2013-05-02 13:46:00,
2013-05-02 08:51:00,51.7,48.6,30.10,North,5,7.0,10.0,89,0.00,,,0.04,WeatherCatV1.02B3,2013-05-02 13:51:00,
2013-05-02 08:52:00,51.7,48.6,30.10,NNW,327,3.0,14.0,89,0.00,,,0.04,WeatherCatV1.02B3,2013-05-02 13:52:00,
2013-05-02 08:57:00,51.9,48.8,30.10,NNE,31,2.0,5.0,89,0.00,,,0.04,WeatherCatV1.02B3,2013-05-02 13:57:00,
2013-05-02 09:02:00,52.1,48.7,30.10,North,5,0.0,10.0,88,0.00,,,0.04,WeatherCatV1.02B3,2013-05-02 14:02:00,
2013-05-02 09:07:00,52.2,48.4,30.10,North,355,2.0,15.0,87,0.00,,,0.04,WeatherCatV1.02B3,2013-05-02 14:07:00,
2013-05-02 09:12:00,52.3,48.5,30.10,North,0,3.0,10.0,87,0.00,,,0.04,WeatherCatV1.02B3,2013-05-02 14:12:00,
2013-05-02 09:17:00,52.4,48.6,30.10,NNE,25,6.0,13.0,87,0.00,,,0.04,WeatherCatV1.02B3,2013-05-02 14:17:00,
2013-05-02 09:22:00,52.6,48.2,30.10,NNE,32,2.0,10.0,85,0.00,,,0.04,WeatherCatV1.02B3,2013-05-02 14:22:00,
2013-05-02 09:27:00,52.9,48.5,30.10,NNE,26,6.0,10.0,85,0.00,,,0.04,WeatherCatV1.02B3,2013-05-02 14:27:00,
2013-05-02 09:32:00,53.1,48.4,30.10,NNE,29,7.0,21.0,84,0.00,,,0.04,WeatherCatV1.02B3,2013-05-02 14:32:00,
2013-05-02 09:37:00,53.3,48.6,30.10,NE,38,3.0,12.0,84,0.00,,,0.04,WeatherCatV1.02B3,2013-05-02 14:37:00,
2013-05-02 09:42:00,53.6,48.9,30.10,NNE,32,5.0,14.0,84,0.00,,,0.04,WeatherCatV1.02B3,2013-05-02 14:42:00,
2013-05-02 09:47:00,53.8,48.8,30.10,NE,46,0.0,7.0,83,0.00,,,0.04,WeatherCatV1.02B3,2013-05-02 14:47:00,
2013-05-02 09:52:00,53.8,48.4,30.10,North,355,7.0,15.0,82,0.00,,,0.04,WeatherCatV1.02B3,2013-05-02 14:52:00,
2013-05-02 09:57:00,53.7,48.0,30.10,North,5,3.0,16.0,81,0.00,,,0.04,WeatherCatV1.02B3,2013-05-02 14:57:00,
2013-05-02 10:02:00,53.6,47.9,30.11,NNE,17,6.0,15.0,81,0.00,,,0.04,WeatherCatV1.02B3,2013-05-02 15:02:00,
2013-05-02 10:07:00,53.7,48.3,30.11,NNE,13,2.0,12.0,82,0.00,,,0.04,WeatherCatV1.02B3,2013-05-02 15:07:00,
2013-05-02 10:12:00,53.9,48.2,30.11,NE,40,7.0,14.0,81,0.00,,,0.04,WeatherCatV1.02B3,2013-05-02 15:12:00,
2013-05-02 10:17:00,54.0,48.0,30.11,NNE,19,4.0,13.0,80,0.00,,,0.04,WeatherCatV1.02B3,2013-05-02 15:17:00,
2013-05-02 10:22:00,54.1,47.7,30.11,NNW,340,3.0,12.0,79,0.00,,,0.04,WeatherCatV1.02B3,2013-05-02 15:22:00,
2013-05-02 10:27:00,54.2,48.2,30.11,North,0,5.0,16.0,80,0.00,,,0.04,WeatherCatV1.02B3,2013-05-02 15:27:00,
2013-05-02 10:32:00,54.5,48.5,30.11,WNW,287,12.0,14.0,80,0.00,,,0.04,WeatherCatV1.02B3,2013-05-02 15:32:00,
2013-05-02 10:37:00,54.7,48.3,30.11,NNW,332,7.0,16.0,79,0.00,,,0.04,WeatherCatV1.02B3,2013-05-02 15:37:00,
2013-05-02 10:42:00,54.8,48.4,30.11,NNE,17,5.0,6.0,79,0.00,,,0.04,WeatherCatV1.02B3,2013-05-02 15:42:00,
2013-05-02 10:47:00,54.8,48.1,30.12,North,355,2.0,13.0,78,0.00,,,0.04,WeatherCatV1.02B3,2013-05-02 15:47:00,
2013-05-02 10:52:00,54.9,47.8,30.12,NE,34,12.0,16.0,77,0.00,,,0.04,WeatherCatV1.02B3,2013-05-02 15:52:00,
2013-05-02 10:57:00,54.9,47.8,30.12,North,5,4.0,9.0,77,0.00,,,0.04,WeatherCatV1.02B3,2013-05-02 15:57:00,
2013-05-02 11:02:00,55.0,48.3,30.12,NNW,329,2.0,13.0,78,0.00,,,0.04,WeatherCatV1.02B3,2013-05-02 16:02:00,
2013-05-02 11:07:00,55.1,48.0,30.12,North,0,4.0,13.0,77,0.00,,,0.04,WeatherCatV1.02B3,2013-05-02 16:07:00,
2013-05-02 11:12:00,55.1,47.7,30.12,NE,34,5.0,19.0,76,0.00,,,0.04,WeatherCatV1.02B3,2013-05-02 16:12:00,
2013-05-02 11:17:00,55.0,47.9,30.13,NW,319,4.0,7.0,77,0.00,,,0.04,WeatherCatV1.02B3,2013-05-02 16:17:00,
2013-05-02 11:22:00,55.0,47.9,30.13,NNE,12,13.0,16.0,77,0.00,,,0.04,WeatherCatV1.02B3,2013-05-02 16:22:00,
2013-05-02 11:27:00,55.0,47.9,30.13,NNE,25,7.0,12.0,77,0.00,,,0.04,WeatherCatV1.02B3,2013-05-02 16:27:00,
2013-05-02 11:32:00,54.9,47.5,30.13,NNE,17,4.0,16.0,76,0.00,,,0.04,WeatherCatV1.02B3,2013-05-02 16:32:00,
2013-05-02 11:37:00,54.9,47.1,30.13,North,351,3.0,16.0,75,0.00,,,0.04,WeatherCatV1.02B3,2013-05-02 16:37:00,
2013-05-02 11:42:00,54.9,47.5,30.13,NNE,26,7.0,10.0,76,0.00,,,0.04,WeatherCatV1.02B3,2013-05-02 16:42:00,
2013-05-02 11:47:00,54.7,46.9,30.13,NNE,24,2.0,16.0,75,0.00,,,0.04,WeatherCatV1.02B3,2013-05-02 16:47:00,
2013-05-02 11:52:00,54.6,47.2,30.13,North,5,4.0,6.0,76,0.00,,,0.04,WeatherCatV1.02B3,2013-05-02 16:52:00,
2013-05-02 11:57:00,54.5,47.4,30.13,NW,319,6.0,9.0,77,0.00,,,0.04,WeatherCatV1.02B3,2013-05-02 16:57:00,
2013-05-02 12:02:00,54.3,46.5,30.15,ENE,57,3.0,16.0,75,0.00,,,0.04,WeatherCatV1.02B3,2013-05-02 17:02:00,
2013-05-02 12:07:00,54.1,46.7,30.15,NNW,346,9.0,15.0,76,0.00,,,0.04,WeatherCatV1.02B3,2013-05-02 17:07:00,
2013-05-02 12:12:00,54.0,46.3,30.15,NE,40,3.0,11.0,75,0.00,,,0.04,WeatherCatV1.02B3,2013-05-02 17:12:00,
2013-05-02 12:17:00,54.0,46.6,30.16,North,5,6.0,10.0,76,0.00,,,0.04,WeatherCatV1.02B3,2013-05-02 17:17:00,
2013-05-02 12:22:00,53.9,46.5,30.16,NNW,344,3.0,13.0,76,0.00,,,0.04,WeatherCatV1.02B3,2013-05-02 17:22:00,
2013-05-02 12:27:00,53.7,46.0,30.16,North,350,3.0,10.0,75,0.00,,,0.04,WeatherCatV1.02B3,2013-05-02 17:27:00,
2013-05-02 12:32:00,53.6,46.6,30.16,North,0,1.0,12.0,77,0.00,,,0.04,WeatherCatV1.02B3,2013-05-02 17:32:00,
2013-05-02 12:37:00,53.8,46.4,30.16,NE,53,0.0,12.0,76,0.00,,,0.04,WeatherCatV1.02B3,2013-05-02 17:37:00,
2013-05-02 12:42:00,53.8,46.4,30.16,NNE,13,2.0,12.0,76,0.00,,,0.04,WeatherCatV1.02B3,2013-05-02 17:42:00,
2013-05-02 12:47:00,53.9,46.9,30.16,NE,49,3.0,15.0,77,0.00,,,0.04,WeatherCatV1.02B3,2013-05-02 17:47:00,
2013-05-02 12:52:00,54.1,46.4,30.16,North,350,7.0,17.0,75,0.00,,,0.04,WeatherCatV1.02B3,2013-05-02 17:52:00,
2013-05-02 12:57:00,54.4,46.6,30.16,NNW,341,8.0,14.0,75,0.00,,,0.04,WeatherCatV1.02B3,2013-05-02 17:57:00,
2013-05-02 13:02:00,54.5,46.7,30.16,NNW,336,9.0,16.0,75,0.00,,,0.04,WeatherCatV1.02B3,2013-05-02 18:02:00,
2013-05-02 13:07:00,54.7,46.9,30.16,West,266,3.0,17.0,75,0.00,,,0.04,WeatherCatV1.02B3,2013-05-02 18:07:00,
2013-05-02 13:12:00,54.9,46.8,30.16,ENE,76,4.0,14.0,74,0.00,,,0.04,WeatherCatV1.02B3,2013-05-02 18:12:00,
2013-05-02 13:17:00,54.9,46.8,30.16,NNE,24,7.0,12.0,74,0.00,,,0.04,WeatherCatV1.02B3,2013-05-02 18:17:00,
2013-05-02 13:22:00,54.9,46.4,30.16,NNW,344,5.0,13.0,73,0.00,,,0.04,WeatherCatV1.02B3,2013-05-02 18:22:00,
2013-05-02 13:27:00,54.8,46.3,30.16,NNW,336,1.0,12.0,73,0.00,,,0.04,WeatherCatV1.02B3,2013-05-02 18:27:00,
2013-05-02 13:32:00,55.0,46.9,30.16,SE,137,2.0,12.0,74,0.00,,,0.04,WeatherCatV1.02B3,2013-05-02 18:32:00,
2013-05-02 13:37:00,55.2,46.7,30.16,ENE,65,3.0,14.0,73,0.00,,,0.04,WeatherCatV1.02B3,2013-05-02 18:37:00,
2013-05-02 13:42:00,55.3,46.8,30.16,ENE,62,7.0,9.0,73,0.00,,,0.04,WeatherCatV1.02B3,2013-05-02 18:42:00,
2013-05-02 13:47:00,55.2,46.3,30.16,NNW,348,2.0,10.0,72,0.00,,,0.04,WeatherCatV1.02B3,2013-05-02 18:47:00,
2013-05-02 13:52:00,55.3,47.2,30.16,NNE,18,1.0,8.0,74,0.00,,,0.04,WeatherCatV1.02B3,2013-05-02 18:52:00,
2013-05-02 13:57:00,55.7,47.9,30.16,NE,46,4.0,6.0,75,0.00,,,0.04,WeatherCatV1.02B3,2013-05-02 18:57:00,
2013-05-02 14:02:00,55.8,46.5,30.16,North,10,5.0,13.0,71,0.00,,,0.04,WeatherCatV1.02B3,2013-05-02 19:02:00,
2013-05-02 14:07:00,55.7,46.8,30.16,ENE,72,2.0,7.0,72,0.00,,,0.04,WeatherCatV1.02B3,2013-05-02 19:07:00,
2013-05-02 14:12:00,55.6,46.3,30.16,NNE,16,12.0,15.0,71,0.00,,,0.04,WeatherCatV1.02B3,2013-05-02 19:12:00,
2013-05-02 14:17:00,55.2,46.0,30.16,NNE,17,5.0,17.0,71,0.00,,,0.04,WeatherCatV1.02B3,2013-05-02 19:17:00,
2013-05-02 14:22:00,54.9,46.0,30.16,NE,38,3.0,15.0,72,0.00,,,0.04,WeatherCatV1.02B3,2013-05-02 19:22:00,
2013-05-02 14:28:00,54.8,46.3,30.16,North,0,3.0,6.0,73,0.00,,,0.04,WeatherCatV1.02B3,2013-05-02 19:28:00,
2013-05-02 14:33:00,54.8,45.9,30.17,NNE,15,5.0,13.0,72,0.00,,,0.04,WeatherCatV1.02B3,2013-05-02 19:33:00,
2013-05-02 14:38:00,54.6,45.8,30.17,North,9,13.0,13.0,72,0.00,,,0.04,WeatherCatV1.02B3,2013-05-02 19:38:00,
2013-05-02 14:43:00,54.4,45.6,30.17,NNE,29,3.0,13.0,72,0.00,,,0.04,WeatherCatV1.02B3,2013-05-02 19:43:00,
2013-05-02 14:48:00,54.3,45.5,30.17,North,351,2.0,14.0,72,0.00,,,0.04,WeatherCatV1.02B3,2013-05-02 19:48:00,
2013-05-02 14:53:00,54.3,45.8,30.17,West,277,2.0,9.0,73,0.00,,,0.04,WeatherCatV1.02B3,2013-05-02 19:53:00,
2013-05-02 14:58:00,54.2,45.7,30.17,NNW,332,2.0,9.0,73,0.00,,,0.04,WeatherCatV1.02B3,2013-05-02 19:58:00,
2013-05-02 15:03:00,54.0,45.2,30.17,NE,36,4.0,13.0,72,0.00,,,0.04,WeatherCatV1.02B3,2013-05-02 20:03:00,
2013-05-02 15:08:00,53.6,45.2,30.17,NNW,338,3.0,15.0,73,0.00,,,0.04,WeatherCatV1.02B3,2013-05-02 20:08:00,
2013-05-02 15:13:00,53.2,45.5,30.17,ENE,65,5.0,11.0,75,0.00,,,0.04,WeatherCatV1.02B3,2013-05-02 20:13:00,
2013-05-02 15:18:00,52.9,45.2,30.18,NNW,348,2.0,14.0,75,0.00,,,0.04,WeatherCatV1.02B3,2013-05-02 20:18:00,
2013-05-02 15:23:00,52.6,44.2,30.18,NNE,24,0.0,12.0,73,0.00,,,0.04,WeatherCatV1.02B3,2013-05-02 20:23:00,
2013-05-02 15:28:00,52.3,44.6,30.18,NNW,341,6.0,11.0,75,0.00,,,0.04,WeatherCatV1.02B3,2013-05-02 20:28:00,
2013-05-02 15:33:00,52.3,45.0,30.17,NNE,22,2.0,9.0,76,0.00,,,0.04,WeatherCatV1.02B3,2013-05-02 20:33:00,
2013-05-02 15:38:00,52.3,45.0,30.17,NNW,335,5.0,14.0,76,0.00,,,0.04,WeatherCatV1.02B3,2013-05-02 20:38:00,
2013-05-02 15:43:00,52.2,44.5,30.17,NNE,28,3.0,15.0,75,0.00,,,0.04,WeatherCatV1.02B3,2013-05-02 20:43:00,
2013-05-02 15:48:00,51.9,44.6,30.17,North,9,13.0,13.0,76,0.00,,,0.04,WeatherCatV1.02B3,2013-05-02 20:48:00,
2013-05-02 15:53:00,51.9,44.2,30.17,NE,44,7.0,18.0,75,0.00,,,0.04,WeatherCatV1.02B3,2013-05-02 20:53:00,
2013-05-02 15:58:00,51.7,43.7,30.17,NW,306,9.0,15.0,74,0.00,,,0.04,WeatherCatV1.02B3,2013-05-02 20:58:00,
2013-05-02 16:03:00,51.5,43.5,30.18,North,355,9.0,14.0,74,0.00,,,0.04,WeatherCatV1.02B3,2013-05-02 21:03:00,
2013-05-02 16:08:00,51.3,43.3,30.18,NNE,31,4.0,17.0,74,0.00,,,0.04,WeatherCatV1.02B3,2013-05-02 21:08:00,
2013-05-02 16:13:00,51.1,43.1,30.18,NNE,13,7.0,20.0,74,0.00,,,0.04,WeatherCatV1.02B3,2013-05-02 21:13:00,
2013-05-02 16:18:00,50.9,42.9,30.18,NNE,29,9.0,15.0,74,0.00,,,0.04,WeatherCatV1.02B3,2013-05-02 21:18:00,
2013-05-02 16:23:00,50.7,42.7,30.18,NNW,343,4.0,21.0,74,0.00,,,0.04,WeatherCatV1.02B3,2013-05-02 21:23:00,
2013-05-02 16:28:00,50.6,43.0,30.18,NW,322,6.0,18.0,75,0.00,,,0.04,WeatherCatV1.02B3,2013-05-02 21:28:00,
2013-05-02 16:33:00,50.5,42.9,30.18,North,355,5.0,12.0,75,0.00,,,0.04,WeatherCatV1.02B3,2013-05-02 21:33:00,
2013-05-02 16:38:00,50.4,42.4,30.18,NNE,32,0.0,17.0,74,0.00,,,0.04,WeatherCatV1.02B3,2013-05-02 21:38:00,
2013-05-02 16:43:00,50.3,42.7,30.18,North,5,16.0,21.0,75,0.00,,,0.04,WeatherCatV1.02B3,2013-05-02 21:43:00,
2013-05-02 16:48:00,50.3,42.7,30.18,ENE,60,10.0,16.0,75,0.00,,,0.04,WeatherCatV1.02B3,2013-05-02 21:48:00,
2013-05-02 16:53:00,50.2,42.9,30.18,NNW,347,4.0,16.0,76,0.00,,,0.04,WeatherCatV1.02B3,2013-05-02 21:53:00,
2013-05-02 16:58:00,50.0,42.7,30.18,North,355,14.0,18.0,76,0.00,,,0.04,WeatherCatV1.02B3,2013-05-02 21:58:00,
2013-05-02 17:03:00,49.8,42.9,30.18,North,355,4.0,11.0,77,0.00,,,0.04,WeatherCatV1.02B3,2013-05-02 22:03:00,
2013-05-02 17:08:00,49.7,42.8,30.18,SE,127,22.0,22.0,77,0.00,,,0.04,WeatherCatV1.02B3,2013-05-02 22:08:00,
2013-05-02 17:13:00,49.5,42.9,30.18,NW,315,5.0,15.0,78,0.00,,,0.04,WeatherCatV1.02B3,2013-05-02 22:13:00,
2013-05-02 17:18:00,49.4,43.5,30.19,NE,50,1.0,18.0,80,0.00,,,0.04,WeatherCatV1.02B3,2013-05-02 22:18:00,
2013-05-02 17:23:00,49.1,43.5,30.19,NNW,348,3.0,12.0,81,0.00,,,0.04,WeatherCatV1.02B3,2013-05-02 22:23:00,
2013-05-02 17:28:00,48.8,43.9,30.19,NE,38,7.0,11.0,83,0.00,,,0.04,WeatherCatV1.02B3,2013-05-02 22:28:00,
2013-05-02 17:33:00,48.5,43.6,30.20,NNW,342,5.0,13.0,83,0.00,,,0.04,WeatherCatV1.02B3,2013-05-02 22:33:00,
2013-05-02 17:38:00,48.3,43.4,30.20,NE,35,10.0,18.0,83,0.00,,,0.04,WeatherCatV1.02B3,2013-05-02 22:38:00,
2013-05-02 17:43:00,48.0,43.1,30.20,North,10,5.0,22.0,83,0.00,,,0.04,WeatherCatV1.02B3,2013-05-02 22:43:00,
2013-05-02 17:48:00,47.7,43.1,30.20,North,9,2.0,13.0,84,0.00,,,0.04,WeatherCatV1.02B3,2013-05-02 22:48:00,
2013-05-02 17:53:00,47.6,43.6,30.20,NNW,341,6.0,15.0,86,0.00,,,0.04,WeatherCatV1.02B3,2013-05-02 22:53:00,
2013-05-02 17:58:00,47.4,43.4,30.20,NNE,26,4.0,16.0,86,0.00,,,0.04,WeatherCatV1.02B3,2013-05-02 22:58:00,
2013-05-02 18:03:00,47.2,43.2,30.20,NNE,12,5.0,17.0,86,0.00,,,0.04,WeatherCatV1.02B3,2013-05-02 23:03:00,
2013-05-02 18:08:00,47.2,43.2,30.20,North,350,4.0,16.0,86,0.00,,,0.04,WeatherCatV1.02B3,2013-05-02 23:08:00,
2013-05-02 18:13:00,47.0,43.0,30.20,North,350,5.0,18.0,86,0.00,,,0.04,WeatherCatV1.02B3,2013-05-02 23:13:00,
2013-05-02 18:18:00,46.9,43.2,30.21,NE,36,7.0,10.0,87,0.00,,,0.04,WeatherCatV1.02B3,2013-05-02 23:18:00,
2013-05-02 18:23:00,46.9,43.2,30.21,North,5,10.0,15.0,87,0.00,,,0.05,WeatherCatV1.02B3,2013-05-02 23:23:00,
2013-05-02 18:28:00,46.7,43.0,30.21,North,351,5.0,17.0,87,0.00,,,0.05,WeatherCatV1.02B3,2013-05-02 23:28:00,
2013-05-02 18:33:00,46.4,43.0,30.21,NNE,15,7.0,14.0,88,0.00,,,0.05,WeatherCatV1.02B3,2013-05-02 23:33:00,
2013-05-02 18:38:00,46.2,42.8,30.21,ENE,65,8.0,11.0,88,0.00,,,0.05,WeatherCatV1.02B3,2013-05-02 23:38:00,
2013-05-02 18:43:00,46.0,43.8,30.21,North,5,7.0,16.0,92,0.00,,,0.05,WeatherCatV1.02B3,2013-05-02 23:43:00,
2013-05-02 18:48:00,45.7,42.1,30.22,North,5,11.0,19.0,87,0.00,,,0.05,WeatherCatV1.02B3,2013-05-02 23:48:00,
2013-05-02 18:53:00,45.5,42.2,30.22,NNE,17,12.0,18.0,88,0.00,,,0.05,WeatherCatV1.02B3,2013-05-02 23:53:00,
2013-05-02 18:58:00,45.5,42.4,30.22,NE,42,7.0,16.0,89,0.00,,,0.06,WeatherCatV1.02B3,2013-05-02 23:58:00,
2013-05-02 19:03:00,45.5,42.7,30.22,North,349,3.0,14.0,90,0.00,,,0.06,WeatherCatV1.02B3,2013-05-03 00:03:00,
2013-05-02 19:08:00,45.3,43.1,30.22,West,266,2.0,16.0,92,0.00,,,0.06,WeatherCatV1.02B3,2013-05-03 00:08:00,
2013-05-02 19:13:00,45.2,42.2,30.22,NNW,344,6.0,16.0,89,0.00,,,0.06,WeatherCatV1.02B3,2013-05-03 00:13:00,
2013-05-02 19:18:00,45.1,41.8,30.22,ENE,77,6.0,18.0,88,0.00,,,0.06,WeatherCatV1.02B3,2013-05-03 00:18:00,
2013-05-02 19:23:00,45.1,41.5,30.22,NNE,13,5.0,17.0,87,0.00,,,0.06,WeatherCatV1.02B3,2013-05-03 00:23:00,
2013-05-02 19:28:00,45.0,41.4,30.22,NNE,14,3.0,13.0,87,0.00,,,0.06,WeatherCatV1.02B3,2013-05-03 00:28:00,
2013-05-02 19:33:00,45.1,41.8,30.23,NNE,13,4.0,16.0,88,0.00,,,0.06,WeatherCatV1.02B3,2013-05-03 00:33:00,
2013-05-02 19:38:00,45.1,41.8,30.23,NW,305,10.0,15.0,88,0.00,,,0.06,WeatherCatV1.02B3,2013-05-03 00:38:00,
2013-05-02 19:43:00,44.9,41.3,30.23,NNE,32,4.0,19.0,87,0.00,,,0.06,WeatherCatV1.02B3,2013-05-03 00:43:00,
2013-05-02 19:48:00,44.8,41.2,30.24,North,355,9.0,13.0,87,0.00,,,0.06,WeatherCatV1.02B3,2013-05-03 00:48:00,
2013-05-02 19:53:00,44.8,41.2,30.24,NNE,22,3.0,16.0,87,0.00,,,0.06,WeatherCatV1.02B3,2013-05-03 00:53:00,
2013-05-02 19:58:00,44.7,40.8,30.24,NNW,342,13.0,21.0,86,0.00,,,0.06,WeatherCatV1.02B3,2013-05-03 00:58:00,
2013-05-02 20:03:00,44.8,40.9,30.24,NE,39,4.0,19.0,86,0.00,,,0.06,WeatherCatV1.02B3,2013-05-03 01:03:00,
2013-05-02 20:08:00,44.9,40.7,30.24,North,355,5.0,21.0,85,0.00,,,0.06,WeatherCatV1.02B3,2013-05-03 01:08:00,
2013-05-02 20:13:00,44.9,40.4,30.24,NW,320,9.0,21.0,84,0.00,,,0.06,WeatherCatV1.02B3,2013-05-03 01:13:00,
2013-05-02 20:18:00,44.9,40.7,30.24,NW,326,13.0,15.0,85,0.00,,,0.06,WeatherCatV1.02B3,2013-05-03 01:18:00,
2013-05-02 20:23:00,45.0,40.5,30.24,NNE,17,3.0,9.0,84,0.00,,,0.06,WeatherCatV1.02B3,2013-05-03 01:23:00,
2013-05-02 20:28:00,45.0,40.8,30.24,NNW,344,10.0,16.0,85,0.00,,,0.06,WeatherCatV1.02B3,2013-05-03 01:28:00,
2013-05-02 20:33:00,44.9,40.7,30.25,ENE,67,5.0,11.0,85,0.00,,,0.06,WeatherCatV1.02B3,2013-05-03 01:33:00,
2013-05-02 20:38:00,44.9,40.7,30.25,NNW,344,6.0,17.0,85,0.00,,,0.06,WeatherCatV1.02B3,2013-05-03 01:38:00,
2013-05-02 20:43:00,44.9,40.4,30.25,NNW,348,2.0,18.0,84,0.00,,,0.06,WeatherCatV1.02B3,2013-05-03 01:43:00,
2013-05-02 20:48:00,44.9,40.4,30.25,NE,44,1.0,18.0,84,0.00,,,0.06,WeatherCatV1.02B3,2013-05-03 01:48:00,
2013-05-02 20:53:00,44.9,40.4,30.25,NNE,22,7.0,19.0,84,0.00,,,0.06,WeatherCatV1.02B3,2013-05-03 01:53:00,
2013-05-02 20:58:00,44.8,40.3,30.25,NNW,334,7.0,15.0,84,0.00,,,0.06,WeatherCatV1.02B3,2013-05-03 01:58:00,
2013-05-02 21:03:00,44.8,40.9,30.25,NNE,22,3.0,11.0,86,0.00,,,0.06,WeatherCatV1.02B3,2013-05-03 02:03:00,
2013-05-02 21:08:00,44.6,40.7,30.25,NNW,342,5.0,12.0,86,0.00,,,0.06,WeatherCatV1.02B3,2013-05-03 02:08:00,
2013-05-02 21:13:00,44.6,41.3,30.25,North,350,4.0,13.0,88,0.00,,,0.06,WeatherCatV1.02B3,2013-05-03 02:13:00,
2013-05-02 21:18:00,44.4,40.8,30.25,ESE,109,1.0,17.0,87,0.00,,,0.06,WeatherCatV1.02B3,2013-05-03 02:18:00,
2013-05-02 21:23:00,44.4,40.8,30.25,NNW,329,5.0,17.0,87,0.00,,,0.06,WeatherCatV1.02B3,2013-05-03 02:23:00,
2013-05-02 21:28:00,44.3,40.7,30.25,NNW,345,6.0,16.0,87,0.00,,,0.06,WeatherCatV1.02B3,2013-05-03 02:28:00,
2013-05-02 21:33:00,44.4,40.5,30.25,WNW,293,9.0,16.0,86,0.00,,,0.06,WeatherCatV1.02B3,2013-05-03 02:33:00,
2013-05-02 21:38:00,44.4,40.2,30.25,NNE,27,9.0,23.0,85,0.00,,,0.06,WeatherCatV1.02B3,2013-05-03 02:38:00,
2013-05-02 21:43:00,44.5,40.3,30.25,NNW,339,5.0,22.0,85,0.00,,,0.06,WeatherCatV1.02B3,2013-05-03 02:43:00,
2013-05-02 21:48:00,44.7,40.8,30.26,NW,320,6.0,14.0,86,0.00,,,0.06,WeatherCatV1.02B3,2013-05-03 02:48:00,
2013-05-02 21:53:00,44.8,40.3,30.26,ENE,62,4.0,15.0,84,0.00,,,0.06,WeatherCatV1.02B3,2013-05-03 02:53:00,
2013-05-02 21:58:00,44.8,40.3,30.26,North,355,6.0,16.0,84,0.00,,,0.06,WeatherCatV1.02B3,2013-05-03 02:58:00,
2013-05-02 22:03:00,44.9,40.4,30.26,North,355,9.0,10.0,84,0.00,,,0.06,WeatherCatV1.02B3,2013-05-03 03:03:00,
2013-05-02 22:08:00,45.0,40.5,30.26,North,355,16.0,18.0,84,0.00,,,0.06,WeatherCatV1.02B3,2013-05-03 03:08:00,
2013-05-02 22:13:00,45.1,40.6,30.26,NNE,26,13.0,16.0,84,0.00,,,0.06,WeatherCatV1.02B3,2013-05-03 03:13:00,
2013-05-02 22:18:00,45.2,40.7,30.27,North,355,14.0,17.0,84,0.00,,,0.06,WeatherCatV1.02B3,2013-05-03 03:18:00,
2013-05-02 22:23:00,45.2,40.3,30.27,ENE,59,10.0,21.0,83,0.00,,,0.06,WeatherCatV1.02B3,2013-05-03 03:23:00,
2013-05-02 22:28:00,45.1,39.6,30.27,ENE,67,9.0,21.0,81,0.00,,,0.06,WeatherCatV1.02B3,2013-05-03 03:28:00,
2013-05-02 22:33:00,45.1,39.9,30.27,NNE,22,17.0,17.0,82,0.00,,,0.06,WeatherCatV1.02B3,2013-05-03 03:33:00,
2013-05-02 22:38:00,45.1,39.9,30.27,NNE,21,12.0,15.0,82,0.00,,,0.06,WeatherCatV1.02B3,2013-05-03 03:38:00,
2013-05-02 22:43:00,45.2,40.0,30.27,ESE,111,9.0,13.0,82,0.00,,,0.06,WeatherCatV1.02B3,2013-05-03 03:43:00,
2013-05-02 22:48:00,45.2,40.3,30.26,NNW,338,7.0,17.0,83,0.00,,,0.06,WeatherCatV1.02B3,2013-05-03 03:48:00,
2013-05-02 22:53:00,45.2,40.0,30.26,NNW,342,5.0,14.0,82,0.00,,,0.06,WeatherCatV1.02B3,2013-05-03 03:53:00,
2013-05-02 22:58:00,45.4,39.9,30.26,NNE,23,2.0,15.0,81,0.00,,,0.06,WeatherCatV1.02B3,2013-05-03 03:58:00,
2013-05-02 23:01:00,45.4,39.9,30.25,NNW,335,7.0,17.0,81,0.00,,,0.06,WeatherCatV1.02B3,2013-05-03 04:01:00,
2013-05-02 23:06:00,45.5,40.3,30.25,NNE,26,9.0,9.0,82,0.00,,,0.06,WeatherCatV1.02B3,2013-05-03 04:06:00,
2013-05-02 23:11:00,45.5,39.7,30.25,NNW,344,3.0,17.0,80,0.00,,,0.06,WeatherCatV1.02B3,2013-05-03 04:11:00,
2013-05-02 23:16:00,45.5,39.4,30.25,North,9,11.0,24.0,79,0.00,,,0.06,WeatherCatV1.02B3,2013-05-03 04:16:00,
2013-05-02 23:21:00,45.5,39.7,30.25,NE,51,5.0,17.0,80,0.00,,,0.06,WeatherCatV1.02B3,2013-05-03 04:21:00,
2013-05-02 23:26:00,45.6,39.5,30.25,North,0,4.0,19.0,79,0.00,,,0.06,WeatherCatV1.02B3,2013-05-03 04:26:00,
2013-05-02 23:31:00,45.6,39.5,30.24,NNE,32,12.0,14.0,79,0.00,,,0.06,WeatherCatV1.02B3,2013-05-03 04:31:00,
2013-05-02 23:36:00,45.6,39.1,30.24,NNE,32,16.0,20.0,78,0.00,,,0.06,WeatherCatV1.02B3,2013-05-03 04:36:00,
2013-05-02 23:41:00,45.6,38.5,30.24,NNE,28,7.0,26.0,76,0.00,,,0.06,WeatherCatV1.02B3,2013-05-03 04:41:00,
2013-05-02 23:46:00,45.5,38.4,30.25,NNE,23,4.0,18.0,76,0.00,,,0.06,WeatherCatV1.02B3,2013-05-03 04:46:00,
2013-05-02 23:51:00,45.4,38.6,30.25,NNW,342,13.0,16.0,77,0.00,,,0.06,WeatherCatV1.02B3,2013-05-03 04:51:00,
2013-05-02 23:56:00,45.3,38.2,30.25,NE,47,6.0,14.0,76,0.00,,,0.06,WeatherCatV1.02B3,2013-05-03 04:56:00,